This demonstration page uses our WeatherBlox Daily Observations layout. Learn more.

Left ArrowRight Arrow

39.29038, -76.61219

Hourly Observations for February 11, 2021

Temp ( °F °C ) Dew Point ( °F °C ) Humidity (%) Winds ( mph kmh ) Pressure ( in mb ) Visibility ( mi km ) Precip ( " mm )
12:54 am 00:54 Cloudy with Snow 33 0.6 31 -0.6 92 92 E 5 7 30.21 1023 1 1 0.08 2.03
1:54 am 01:54 Cloudy with Snow 33 0.6 31 -0.6 92 92 E 6 9 30.18 1022 1 1 0.05 1.27
2:54 am 02:54 Cloudy with Light Snow 33 0.6 31 -0.6 92 92 E 6 9 30.17 1022 1 1 0.03 0.76
3:54 am 03:54 Cloudy with Light Snow 33 0.6 31 -0.6 92 92 ENE 5 7 30.17 1022 1 1 0.02 0.51
4:54 am 04:54 Cloudy with Light Snow 33 0.6 31 -0.6 92 92 ENE 6 9 30.17 1022 1 1 0.02 0.51
5:25 am 05:25 Cloudy with Mist and Fog 33 0.6 31 -0.6 92 92 ENE 6 9 30.18 1022 1 1 0.00 0.00
5:54 am 05:54 Cloudy with Mist and Fog 33 0.6 30 -1.1 89 89 ENE 7 11 30.17 1022 1 1 0.02 0.51
5:58 am 05:58 Cloudy with Light Snow 33 0.6 30 -1.1 89 89 ENE 7 11 30.18 1022 1 1 0.00 0.00
6:54 am 06:54 Cloudy with Light Snow 33 0.6 30 -1.1 89 89 ENE 8 13 30.18 1022 1 1 0.02 0.51
7:10 am 07:10 Cloudy with Light Snow 33 0.6 30 -1.1 89 89 NE 8 13 30.19 1022 1 2 0.01 0.25
7:35 am 07:35 Cloudy with Light Snow 33 0.6 30 -1.1 89 89 NE 8 13 30.20 1023 1 1 0.02 0.51
7:54 am 07:54 Cloudy with Light Snow 32 undefined 29 -1.7 88 88 NE 9 15 30.20 1023 1 2 0.02 0.51
8:38 am 08:38 Cloudy with Light Snow 32 undefined 29 -1.7 88 88 NE 8 13 30.23 1024 2 3 0.01 0.25
8:54 am 08:54 Cloudy with Light Snow 32 undefined 29 -1.7 88 88 NE 9 15 30.22 1023 3 4 0.01 0.25
9:54 am 09:54 Cloudy with Light Snow 32 undefined 28 -2.2 85 85 NNE 8 13 30.23 1024 3 4 0.00 0.00
10:17 am 10:17 Cloudy with Light Snow 32 undefined 28 -2.2 85 85 NE 8 13 30.24 1024 3 5 0.00 0.00
10:44 am 10:44 Cloudy with Mist and Fog 32 undefined 28 -2.2 85 85 NNE 7 11 30.25 1024 4 6 0.00 0.00
10:54 am 10:54 Cloudy with Mist and Fog 32 undefined 28 -2.2 85 85 NNE 7 11 30.25 1024 4 6 0.00 0.00
11:18 am 11:18 Cloudy with Mist and Fog 32 undefined 28 -2.2 85 85 NNE 9 15 30.25 1024 6 10 N/A
11:54 am 11:54 Cloudy with Haze 33 0.6 27 -2.8 78 78 NE 9 15 30.24 1024 6 10 N/A
12:12 pm 12:12 Cloudy with Haze 33 0.6 27 -2.8 78 78 NE 7 11 30.23 1024 6 10 N/A
12:54 pm 12:54 Cloudy with Haze 33 0.6 27 -2.8 78 78 NE 7 11 30.22 1023 5 8 N/A
1:54 pm 13:54 Cloudy with Haze 33 0.6 27 -2.8 78 78 N 7 11 30.22 1023 6 10 N/A
2:34 pm 14:34 Cloudy with Haze 33 0.6 27 -2.8 78 78 N 8 13 30.22 1023 4 6 N/A
2:54 pm 14:54 Cloudy with Haze 33 0.6 27 -2.8 78 78 NNE 8 13 30.21 1023 4 6 N/A
3:54 pm 15:54 Cloudy with Haze 33 0.6 27 -2.8 78 78 N 7 11 30.25 1024 4 6 N/A
4:54 pm 16:54 Cloudy with Haze 33 0.6 25 -3.9 72 72 NNE 7 11 30.25 1025 5 8 N/A
5:38 pm 17:38 Cloudy with Haze 32 undefined 25 -3.9 75 75 NNE 6 9 30.27 1025 5 8 N/A
5:54 pm 17:54 Cloudy with Haze 32 undefined 25 -3.9 75 75 N 5 7 30.27 1025 6 10 N/A
6:10 pm 18:10 Cloudy with Haze 32 undefined 25 -3.9 75 75 NNE 6 9 30.28 1025 6 10 N/A
6:54 pm 18:54 Cloudy with Haze 32 undefined 25 -3.9 75 75 NNE 6 9 30.28 1025 6 10 N/A
7:54 pm 19:54 Cloudy 32 undefined 25 -3.9 75 75 N N/A 30.30 1026 7 11 N/A
8:35 pm 20:35 Cloudy 32 undefined 23 -5 69 69 NNE 6 9 30.32 1027 10 16 N/A
8:54 pm 20:54 Cloudy 32 undefined 23 -5 69 69 NNE 5 7 30.31 1026 10 16 N/A
9:54 pm 21:54 Cloudy 32 undefined 23 -5 69 69 NE 6 9 30.32 1027 10 16 N/A
10:54 pm 22:54 Cloudy 31 -0.6 21 -6.1 67 67 NE 8 13 30.32 1027 10 16 N/A
11:54 pm 23:54 Cloudy 31 -0.6 20 -6.7 64 64 NE 6 9 30.32 1027 10 16 N/A

Powered by AerisWeather